This is the latest recevied weather packets stored in our database for station/object KN6DHD. If no packets are shown the sender has not sent any weather packets the latest 10 day(s).
| Time | Temp. | Humidity | Pressure | Rain* | Wind** | Luminosity | Snow |
|---|---|---|---|---|---|---|---|
| 1777824784 | 14.44° C | 79% | 1013.2 hPa | 0 mm | - | 131 W/m² | - |
| 1777824481 | 14.44° C | 80% | 1012.9 hPa | 0 mm | - | 125 W/m² | - |
| 1777824177 | 13.89° C | 80% | 1012.9 hPa | 0 mm | - | 115 W/m² | - |
| 1777823873 | 14.44° C | 80% | 1012.8 hPa | 0 mm | - | 112 W/m² | - |
| 1777823571 | 14.44° C | 81% | 1012.9 hPa | 0 mm | - | 117 W/m² | - |
| 1777823268 | 13.89° C | 81% | 1013 hPa | 0 mm | - | 128 W/m² | - |
| 1777822965 | 13.89° C | 81% | 1012.8 hPa | 0 mm | - | 126 W/m² | - |
| 1777822663 | 13.89° C | 81% | 1012.8 hPa | 0 mm | - | 127 W/m² | - |
| 1777822361 | 13.89° C | 82% | 1012.8 hPa | 0 mm | - | 121 W/m² | - |
| 1777822058 | 13.89° C | 82% | 1012.7 hPa | 0 mm | - | 108 W/m² | - |
| 1777821757 | 13.89° C | 82% | 1012.3 hPa | 0 mm | - | 108 W/m² | - |
| 1777821453 | 13.89° C | 82% | 1012.6 hPa | 0 mm | - | 127 W/m² | - |
| 1777821151 | 13.33° C | 83% | 1012.7 hPa | 0 mm | - | 97 W/m² | - |
| 1777820847 | 13.33° C | 83% | 1012.5 hPa | 0 mm | - | 86 W/m² | - |
| 1777820543 | 13.33° C | 83% | 1012.3 hPa | 0 mm | - | 81 W/m² | - |
| 1777820240 | 13.33° C | 84% | 1012.4 hPa | 0 mm | - | 73 W/m² | - |
| 1777819938 | 13.33° C | 85% | 1012.6 hPa | 0 mm | - | 74 W/m² | - |
| 1777819635 | 12.78° C | 85% | 1012.4 hPa | 0 mm | - | 75 W/m² | - |
| 1777819333 | 12.78° C | 86% | 1012.6 hPa | 0 mm | - | 68 W/m² | - |
| 1777819029 | 12.78° C | 86% | 1012.1 hPa | 0 mm | - | 60 W/m² | - |
| 1777818727 | 12.78° C | 86% | 1012.1 hPa | 0 mm | - | 57 W/m² | - |
| 1777818423 | 12.78° C | 86% | 1012 hPa | 0 mm | - | 53 W/m² | - |
| 1777818119 | 12.78° C | 86% | 1011.7 hPa | 0 mm | - | 47 W/m² | - |
| 1777817816 | 12.78° C | 86% | 1011.7 hPa | 0 mm | - | 43 W/m² | - |
| 1777817514 | 12.78° C | 87% | 1011.6 hPa | 0 mm | - | 37 W/m² | - |
* Rain latest hour (hover to see other rain measurements)
** Current wind speed in m/s (hover to see current wind gust speed)